Torna al catalogo

COSMOS 2389

AttivoMilitarePO
NORAD 27436·PAYLOAD·🇷🇺 Russia

Lanciato May 28, 2002 da Plesetsk Cosmodrome

Loading…

Prossimi Passaggi (prossime 24 ore)

TLE

AggiornatoSource: Space-Track

Epoca: Sep 14, 2026, 14:14 UTC

1 27436U 02026A   26257.59340941  .00000035  00000-0  20663-4 0  9998
2 27436  82.9471 102.8278 0046641  11.6896  11.0346 13.75178191219409

Traccia COSMOS 2389 in tempo reale con AllMySat

Download on the App Store